Location: Basse Occidentale du Courleau
(48.3833°N, 4.8333°W)
Time: 18:39:22
(UTC+00:00)

Cosmos 2341 Rocket - Pass Details

Date: 05 July 2020
Orbit: 968 x 1004 km, 82.9° (Epoch: 05 August)

Event Time Altitude Azimuth Distance (km) Brightness Sun altitude
Exits shadow 23:11:49 27° 161° (SSE) 1,785 4.8 -17.1°
Maximum altitude 23:15:12 59° 93° (E) 1,120 4.2 -17.3°
Drops below altitude 10° 23:21:18 10° 16° (NNE) 2,723 7.2 -17.6°
Sets 23:23:50 0° 13° (NNE) 3,674 8.1 -17.7°
